Find Local Weather

World > North America > United States > Ohio

Cleveland, Ohio Regional Weather

Lat: 41.48N, Lon: 81.68W
Wx Zone: OHZ011
Feedback
Expires:201811212100;;649025
ASUS41 KCLE 212012
RWRCLE
OHIO REGIONAL WEATHER ROUNDUP
NATIONAL WEATHER SERVICE WILMINGTON, OH
300 PM EST WED NOV 21 2018

NOTE: "FAIR" INDICATES FEW OR NO CLOUDS BELOW 12,000 FEET WITH NO
SIGNIFICANT WEATHER AND/OR OBSTRUCTIONS TO VISIBILITY.


OHZ009>014-019>023-028>033-038-089-212100-
   NORTHEAST OHIO
  
CITY           SKY/WX    TMP DP  RH WIND       PRES   REMARKS
CLE-HOPKINS    CLOUDY    34  27  75 N13       30.26R WCI  25          
CLE-LAKEFRONT  CLOUDY    34  26  72 NW20      30.23R WCI  23          
CUY CO. ARPT   CLOUDY    32  25  74 N13G21    30.23R WCI  22          
LORAIN-ELYRIA  FLURRIES  33  23  66 N9        30.25R WCI  25          
ASHTABULA      CLOUDY    31  24  75 N10G25    30.22R WCI  22          
AKRON-CANTON   CLOUDY    34  27  75 W13       30.20R WCI  25          
WOOSTER        CLOUDY    32  29  88 W12       30.23R WCI  23          
MANSFIELD      CLOUDY    32  29  88 W6        30.23R FOG     WCI  26  
YOUNGSTOWN     FLURRIES  33  27  78 NW13      30.18R WCI  24          
$$
 

SKY/WX - Weather  TMP - Temperature  DP - Dew Point  RH - Relative Humidity
WIND - Wind Direction/Speed PRES - Barometric Pressure